Regional Weather Roundup
Issued by NWS Charleston, SC

Current Version | Previous Version | Graphics & Text | Print | Product List | Glossary On
Versions: 1 2 3 4 5 6 7 8 9 10 11 12 13 14 15 16 17 18 19 20 21 22 23 24 25 26 27 28 29 30 31 32 33 34 35 36 37 38 39 40 41 42 43 44 45 46 47 48 49 50
000
ASUS42 KCHS 280710
RWRCHS
REGIONAL WEATHER ROUNDUP
NATIONAL WEATHER SERVICE CHARLESTON SC
200 AM EST FRI NOV 28 2014

NOTE: "FAIR" INDICATES FEW OR NO CLOUDS BELOW 12,000 FEET WITH NO
SIGNIFICANT WEATHER AND/OR OBSTRUCTIONS TO VISIBILITY.

NOT ALL STATIONS ARE QUALITY CONTROLLED BY THE NATIONAL
WEATHER SERVICE. USE DATA WITH CAUTION...ESPECIALLY
DEWPOINT OBSERVATIONS.

SCZ027-030-031-034>040-042>050-280800-
...SOUTHEAST SOUTH CAROLINA...

CITY           SKY/WX    TMP DP  RH WIND       PRES   REMARKS
N CHARLESTON   CLEAR     35  31  85 NW8       30.29F WCI  29
WATERFRONT PRK   N/A     43 N/A N/A NW8G15      N/A
MOUNT PLEASANT FAIR      39  34  81 N6        30.29F WCI  35
JOHNS ISLAND   SUNNY     39  36  87 NW8       30.29S WCI  34
PINOPOLIS        N/A     45  34  65 N14       30.22R
MONCKS CORNER  FAIR      43  36  75 N5        30.29S
SUMMERVILLE    FAIR      37  32  81 CALM      30.31S
BEAUFORT MCAS  CLEAR     40  31  70 NW10      30.32S WCI  33
BEAUFORT ARPT  FAIR      41  34  75 NW10      30.31R
HILTON HEAD IS CLEAR     43  32  65 NW7       30.33R
WALTERBORO     SUNNY     36  36 100 NW3       30.33R
ALLENDALE      FAIR      36  32  87 CALM      30.33R

...SOUTHERN MIDLANDS AND PEE DEE...

CITY           SKY/WX    TMP DP  RH WIND       PRES   REMARKS
GEORGETOWN     NOT AVBL
KINGSTREE      NOT AVBL
ORANGEBURG     CLEAR     33  29  85 W5        30.32R WCI  29
BARNWELL         N/A     34  32  93 CALM      30.34R
AIKEN          FAIR      34  30  86 NW3       30.35R
MANNING        NOT AVBL
COLUMBIA       CLEAR     39  25  57 NW7       30.33R WCI  34
SUMTER         CLEAR     35  27  72 NW6       30.30R WCI  30
FLORENCE       CLEAR     35  29  78 NW6       30.30R WCI  30
MYRTLE BEACH   CLEAR     37  30  75 NW8       30.28S WCI  31
N MYRTLE BEACH CLEAR     37  30  75 NW6       30.27R WCI  32

$$

GAZ063-065-086>088-099>101-113>116-118-119-134>141-150-280800-
...SOUTHEAST GEORGIA...

CITY           SKY/WX    TMP DP  RH WIND       PRES   REMARKS
SAVANNAH ARPT  CLEAR     40  30  67 NW7       30.34R WCI  35
HUNTER AAF     CLEAR     38  31  74 NW9       30.31R WCI  32
FORT STEWART   CLEAR     39  29  66 NW7       30.33R WCI  34
STATESBORO     NOT AVBL
SYLVANIA       SUNNY     38  33  81 N5        30.34S WCI  35
CLAXTON        FAIR      36  18  48 W6        30.36R WCI  31

...CSRA...CENTRAL AND FAR SOUTHEAST GEORGIA...

CITY           SKY/WX    TMP DP  RH WIND       PRES   REMARKS
THOMSON        CLEAR     31  31 100 CALM      30.38S
AUGUSTA-BUSH   CLEAR     36  26  67 NW6       30.34R WCI  31
AUGUSTA-DANIEL CLEAR     38  27  64 NW5       30.33S WCI  34
SWAINSBORO     FAIR      32  32 100 CALM      30.35S
VIDALIA        CLEAR     37  32  81 NW6       30.35S WCI  33
HAZLEHURST     FAIR      38  32  81 NW3       30.35F
ALMA           CLEAR     38  29  70 N6        30.35S WCI  33
WAYCROSS       CLEAR     40  34  79 N9        30.35S WCI  34
JESUP          FAIR      41  34  75 N6        30.35R
BAXLEY         FAIR      39  32  75 N8        30.35S WCI  34
BRUNSWICK      CLEAR     37  32  81 W3        30.34S
SAINT SIMONS   CLEAR     40  31  70 NW8       30.33F WCI  34

$$

SCZ027-028-034-036>038-045-046-048>050-GAZ119-141-280800-
...LAKE AND SUPPLEMENTAL COASTAL OBSERVATIONS...

STATION/POSITION TIME  TEMP    WIND        PRES    WAVE   SWELL
                       AIR SEA DIR/SP/G            HT/PER HT/PER/DIR
                 (UTC) (F)     (DEG/KT/KT) (MB)    (FT/S) (FT/S/D)
UPR LAKE MARION  NOT AVBL
WINYAH BAY       0600   40     330/  5     1025.0S
LAKE MURRAY      0600   37     320/  2/  7 1026.1R
ACE BASIN NERRS  0600   40     320/  3     1026.0S
FORT PULASKI     0700   41     300/ 13/ 15 1026.9R
SAPELO ISLAND    0600   42     320/  7     1027.0S

$$

ANZ835-935-AMZ111-154-330-350-352-354-370-450-454-472-280800-
...C-MAN AND BUOY OBSERVATIONS...

STATION/POSITION TIME  TEMP    WIND        PRES    WAVE   SWELL
                       AIR SEA DIR/SP/G            HT/PER HT/PER/DIR
                 (UTC) (F)     (DEG/KT/KT) (MB)    (FT/S) (FT/S/D)
FOLLY BEACH CMAN 0600   43     330/  9/ 12 1025.7F
BUOY 41004       0700   52 72  360/ 21/ 27 1023.1S   5/ 5   2/10
BUOY 41008       0700   48 63  340/ 21/ 27 1025.7R   4/ 5
CAPERS NEARSHORE 0600   45     350/ 17/ 19   N/A
FRIPP NEARSHORE  NOT AVBL


STATION/POSITION TIME  TEMP    WIND        PRES    WAVE   SWELL
                       AIR SEA DIR/SP/G            HT/PER HT/PER/DIR
                 (UTC) (F)     (DEG/KT/KT) (MB)    (FT/S) (FT/S/D)
5E ST. MARYS GA  0700      62                N/A     4/ 5
FRYING PAN BUOY  0700   48 70  350/ 19/ 25 1023.6R   6/ 6   2/ 80/14
BUOY 41025       0700   46     320/ 21/ 27 1020.7R   7/ 6   3/ 50/ 9
CAPE LOOKOUT NC  0600   43     340/ 20/ 24 1022.3R
BUOY 41002       0644   59 73  330/ 27/ 33 1018.3R  11/ 9   2/350/13
BUOY 41010       0700   65 77  340/ 19/ 27 1021.0F  10/ 8   2/ 40/13
ST AUGUSTINE FL  0700   45     340/ 19/ 21 1026.5R


$$


USA.gov is the U.S. government's official web portal to all federal, state and local government web resources and services.